period_start,C,m1,H,J0,J1,J2,J3,J4,J5,JA,JB,JC,JD,JJ,JK,JN,#
2016-08-31 00:03:25,0.01,0.44,0.00,25.65,29.12,31.67,14.40,46.65,1024.21,2028.97,3320.01,3013.46,3406.00,600.04,595.04,50.51,0000 0000 0000 0000 000000
2016-08-31 00:08:26,0.00,0.44,0.00,25.65,29.12,31.67,14.36,46.60,1024.10,2028.98,3320.00,3013.11,3405.98,599.99,595.04,50.56,0000 0000 0000 0000 000000
2016-08-31 00:13:27,0.00,0.44,0.00,25.66,29.12,31.67,14.45,46.62,1024.09,2028.98,3320.00,3013.02,3405.94,600.19,595.24,50.61,0000 0000 0000 0000 000000
2016-08-31 00:18:28,0.00,0.44,0.00,25.65,29.12,31.68,14.44,46.61,1023.99,2028.99,3319.96,3013.01,3405.75,600.00,595.10,50.66,0000 0000 0000 0000 000000
2016-08-31 00:23:30,0.00,0.44,0.00,25.66,29.12,31.69,14.46,46.55,1024.00,2028.99,3319.86,3013.01,3405.66,600.28,595.30,50.71,0000 0000 0000 0000 000000
2016-08-31 00:28:31,0.01,0.44,0.00,25.65,29.12,31.68,14.49,46.64,1023.99,2028.99,3319.39,3013.00,3405.31,600.27,595.36,50.76,0000 0000 0000 0000 000000
2016-08-31 00:33:32,0.00,0.44,0.00,25.67,29.12,31.67,14.36,46.44,1023.96,2028.99,3319.04,3013.00,3405.04,599.74,594.77,50.81,0000 0000 0000 0000 000000
2016-08-31 00:38:33,0.00,0.44,0.00,25.67,29.12,31.68,14.36,46.37,1023.96,2028.99,3319.00,3013.00,3405.01,599.87,594.82,50.86,0000 0000 0000 0000 000000
2016-08-31 00:43:34,0.00,0.44,0.00,25.69,29.12,31.68,14.35,46.58,1023.95,2028.99,3318.99,3012.97,3405.00,599.83,594.95,50.91,0000 0000 0000 0000 000000
2016-08-31 00:48:36,0.01,0.44,0.00,25.67,29.13,31.69,14.39,46.80,1023.95,2028.99,3318.81,3012.73,3404.99,599.96,594.97,50.97,0000 0000 0000 0000 000000
2016-08-31 00:53:38,0.02,0.44,0.00,25.67,29.13,31.68,14.38,46.67,1023.96,2028.99,3318.33,3012.41,3404.97,599.86,594.78,51.02,0000 0000 0000 0000 000000
2016-08-31 00:58:39,0.01,0.44,0.00,25.67,29.14,31.68,14.41,46.60,1023.95,2028.99,3318.02,3012.06,3404.67,600.11,595.10,51.07,0000 0000 0000 0000 000000
2016-08-31 01:03:40,0.00,0.45,0.00,25.68,29.14,31.69,14.43,46.64,1023.96,2028.99,3318.00,3012.01,3404.22,600.04,594.93,51.12,0000 0000 0000 0000 000000
2016-08-31 01:08:41,0.00,0.45,0.00,25.67,29.15,31.69,14.36,46.63,1023.96,2028.99,3317.98,3012.00,3404.03,599.94,594.92,51.17,0000 0000 0000 0000 000000
2016-08-31 01:13:42,0.00,0.45,0.00,25.69,29.15,31.69,14.40,46.62,1023.95,2028.99,3317.88,3011.99,3404.00,600.29,595.22,51.22,0000 0000 0000 0000 000000
2016-08-31 01:18:43,0.01,0.45,0.00,25.70,29.15,31.68,14.37,46.58,1023.94,2028.99,3317.31,3011.98,3404.00,599.75,594.79,51.27,0000 0000 0000 0000 000000
2016-08-31 01:23:45,0.00,0.45,0.00,25.70,29.15,31.69,14.43,46.71,1023.94,2028.99,3317.03,3011.92,3403.98,599.95,594.93,51.32,0000 0000 0000 0000 000000
2016-08-31 01:28:46,0.01,0.45,0.00,25.69,29.15,31.70,14.46,46.68,1023.94,2029.00,3317.00,3011.67,3403.91,600.02,594.89,51.37,0000 0000 0000 0000 000000
2016-08-31 01:33:47,0.02,0.45,0.00,25.71,29.15,31.70,14.44,46.60,1023.94,2029.00,3316.99,3011.19,3403.45,599.83,594.75,51.42,0000 0000 0000 0000 000000
2016-08-31 01:38:48,0.00,0.45,0.00,25.71,29.15,31.70,14.36,46.63,1023.94,2029.00,3316.79,3011.03,3403.08,600.05,594.97,51.47,0000 0000 0000 0000 000000
2016-08-31 01:43:50,0.00,0.45,0.00,25.71,29.15,31.69,14.43,46.56,1023.94,2029.00,3316.17,3011.00,3403.00,600.11,595.00,51.52,0000 0000 0000 0000 000000
2016-08-31 01:48:51,0.00,0.45,0.00,25.71,29.15,31.69,14.38,46.52,1023.94,2029.00,3316.01,3011.00,3403.00,599.71,594.71,51.57,0000 0000 0000 0000 000000
2016-08-31 01:53:52,0.00,0.45,0.00,25.71,29.15,31.70,14.37,46.57,1023.93,2029.00,3315.99,3010.96,3402.97,599.82,594.78,51.62,0000 0000 0000 0000 000000
2016-08-31 01:58:54,0.02,0.45,0.00,25.71,29.15,31.68,14.48,46.70,1023.88,2029.02,3315.74,3010.67,3402.55,600.18,595.05,51.67,0000 0000 0000 0000 000000
2016-08-31 02:03:55,0.02,0.45,0.00,25.72,29.15,31.68,14.40,46.56,1023.87,2029.00,3315.05,3010.07,3402.03,599.84,594.70,51.72,0000 0000 0000 0000 000000
2016-08-31 02:08:56,-0.00,0.45,0.00,25.72,29.15,31.68,14.40,46.41,1023.88,2029.03,3315.00,3010.01,3402.00,600.04,594.88,51.77,0000 0000 0000 0000 000000
2016-08-31 02:13:57,0.00,0.45,0.00,25.72,29.14,31.69,14.32,46.42,1023.79,2029.02,3314.90,3010.00,3401.98,599.80,594.57,51.83,0000 0000 0000 0000 000000
2016-08-31 02:18:59,0.01,0.45,0.00,25.73,29.13,31.68,14.42,46.58,1023.58,2029.00,3314.33,3009.97,3401.68,600.22,594.86,51.88,0000 0000 0000 0000 000000
2016-08-31 02:24:01,0.01,0.45,0.00,25.74,29.13,31.68,14.39,46.51,1023.50,2029.03,3314.03,3009.84,3401.17,600.13,594.68,51.93,0000 0000 0000 0000 000000
2016-08-31 02:29:02,0.01,0.45,0.00,25.75,29.13,31.67,14.43,46.59,1023.49,2029.02,3314.00,3009.46,3401.02,599.98,594.53,51.98,0000 0000 0000 0000 000000
2016-08-31 02:34:03,0.01,0.46,0.00,25.73,29.12,31.67,14.41,46.61,1023.49,2029.05,3313.99,3009.09,3401.00,600.01,594.56,52.03,0000 0000 0000 0000 000000
2016-08-31 02:39:04,0.01,0.46,0.00,25.74,29.12,31.68,14.42,46.58,1023.47,2029.07,3313.83,3009.01,3400.99,599.78,594.21,52.08,0000 0000 0000 0000 000000
2016-08-31 02:44:05,0.01,0.46,0.00,25.75,29.12,31.67,14.45,46.69,1023.46,2029.04,3313.13,3009.00,3400.76,600.00,594.57,52.13,0000 0000 0000 0000 000000
2016-08-31 02:49:07,0.00,0.46,0.00,25.74,29.12,31.67,14.33,46.49,1023.46,2029.02,3313.00,3008.93,3400.10,599.57,594.13,52.18,0000 0000 0000 0000 000000
2016-08-31 02:54:08,0.01,0.46,0.00,25.73,29.12,31.69,14.32,46.45,1023.46,2029.05,3312.97,3008.69,3400.02,599.61,594.22,52.23,0000 0000 0000 0000 000000
2016-08-31 02:59:09,0.02,0.46,0.00,25.75,29.12,31.68,14.40,46.57,1023.46,2029.05,3312.45,3008.07,3399.99,600.05,594.56,52.28,0000 0000 0000 0000 000000
2016-08-31 03:04:11,0.01,0.46,0.00,25.75,29.12,31.67,14.44,46.57,1023.45,2029.08,3312.03,3008.01,3399.87,600.73,595.06,52.33,0000 0000 0000 0000 000000
2016-08-31 03:09:12,0.01,0.46,0.00,25.75,29.12,31.68,14.37,46.46,1023.45,2029.10,3311.99,3008.00,3399.24,600.02,594.55,52.38,0000 0000 0000 0000 000000
2016-08-31 03:14:13,0.02,0.46,0.00,25.76,29.12,31.66,14.37,46.55,1023.45,2029.20,3311.52,3007.99,3399.02,599.73,594.22,52.43,0000 0000 0000 0000 000000
2016-08-31 03:19:14,0.02,0.46,0.00,25.75,29.12,31.66,14.44,46.51,1023.45,2029.26,3311.06,3007.74,3398.99,599.95,594.46,52.48,0000 0000 0000 0000 000000
2016-08-31 03:24:15,0.03,0.46,0.00,25.74,29.12,31.67,14.46,46.63,1023.45,2029.39,3310.98,3007.22,3398.79,600.02,594.57,52.53,0000 0000 0000 0000 000000
2016-08-31 03:29:16,0.02,0.46,0.00,25.78,29.12,31.66,14.45,46.70,1023.45,2029.44,3310.43,3007.01,3398.16,599.98,594.68,52.58,0000 0000 0000 0000 000000
2016-08-31 03:34:17,0.01,0.47,0.00,25.78,29.12,31.66,14.32,46.68,1023.45,2029.51,3310.02,3007.00,3398.01,599.55,594.07,52.63,0000 0000 0000 0000 000000
2016-08-31 03:39:18,-0.02,0.46,0.00,25.77,29.12,31.66,14.35,46.59,1023.45,2029.22,3309.97,3006.96,3397.94,599.83,594.33,52.68,0000 0000 0000 0000 000000
2016-08-31 03:44:20,0.04,0.46,0.00,25.78,29.12,31.66,14.32,46.52,1023.45,2029.26,3309.62,3006.66,3397.58,600.01,594.47,52.73,0000 0000 0000 0000 000000
2016-08-31 03:49:21,0.04,0.47,0.00,25.78,29.12,31.66,14.37,46.54,1023.45,2029.42,3309.03,3006.11,3397.03,600.02,594.43,52.78,0000 0000 0000 0000 000000
2016-08-31 03:54:22,-0.02,0.47,0.00,25.79,29.12,31.66,14.35,46.55,1023.45,2029.40,3308.95,3006.01,3396.99,599.71,594.19,52.84,0000 0000 0000 0000 000000
2016-08-31 03:59:24,0.02,0.47,0.00,25.80,29.12,31.66,14.39,46.63,1023.44,2029.42,3308.36,3005.98,3396.76,599.94,594.39,52.89,0000 0000 0000 0000 000000
2016-08-31 04:04:25,0.06,0.47,0.00,25.80,29.12,31.66,14.41,46.72,1023.45,2029.50,3308.00,3005.51,3396.05,600.13,594.64,52.94,0000 0000 0000 0000 000000
2016-08-31 04:09:26,0.02,0.47,0.00,25.79,29.12,31.65,14.39,46.62,1023.45,2029.67,3307.32,3005.02,3395.88,600.33,594.77,52.99,0000 0000 0000 0000 000000
2016-08-31 04:14:28,0.02,0.47,0.00,25.80,29.12,31.66,14.43,46.62,1023.44,2029.68,3306.97,3004.93,3395.09,600.33,594.71,53.04,0000 0000 0000 0000 000000
2016-08-31 04:19:29,0.02,0.48,0.00,25.81,29.12,31.66,14.42,46.52,1023.45,2029.63,3306.33,3004.33,3394.98,600.14,594.59,53.09,0000 0000 0000 0000 000000
2016-08-31 04:24:30,0.02,0.48,0.00,25.80,29.12,31.67,14.37,46.54,1023.45,2029.57,3306.00,3004.00,3394.40,599.79,594.17,53.14,0000 0000 0000 0000 000000
2016-08-31 04:29:31,-0.01,0.48,0.00,25.82,29.13,31.67,14.42,46.60,1023.45,2029.35,3305.54,3003.95,3394.01,600.27,594.61,53.19,0000 0000 0000 0000 000000
2016-08-31 04:34:32,0.02,0.48,0.00,25.82,29.13,31.67,14.41,46.58,1023.45,2029.39,3305.02,3003.48,3393.91,600.07,594.44,53.24,0000 0000 0000 0000 000000
2016-08-31 04:39:34,0.03,0.48,0.00,25.82,29.14,31.66,14.43,46.63,1023.45,2029.30,3304.48,3003.01,3393.14,600.10,594.57,53.29,0000 0000 0000 0000 000000
2016-08-31 04:44:35,0.01,0.48,0.00,25.83,29.15,31.67,14.32,46.60,1023.45,2029.25,3304.01,3002.85,3392.97,599.72,594.09,53.34,0000 0000 0000 0000 000000
2016-08-31 04:49:36,0.05,0.48,0.00,25.82,29.15,31.67,14.36,46.63,1023.45,2029.38,3303.38,3002.12,3392.24,600.07,594.49,53.39,0000 0000 0000 0000 000000
2016-08-31 04:54:37,0.01,0.48,0.00,25.82,29.15,31.69,14.45,46.63,1023.45,2029.41,3302.92,3002.00,3391.94,600.18,594.57,53.44,0000 0000 0000 0000 000000
2016-08-31 04:59:39,0.04,0.48,0.00,25.83,29.15,31.69,14.41,46.61,1023.44,2029.29,3302.16,3001.46,3391.21,599.88,594.29,53.49,0000 0000 0000 0000 000000
2016-08-31 05:04:40,0.02,0.49,0.00,25.83,29.15,31.69,14.43,46.60,1023.41,2029.35,3301.82,3001.01,3391.00,600.01,594.49,53.54,0000 0000 0000 0000 000000
2016-08-31 05:09:41,0.04,0.49,0.00,25.82,29.15,31.69,14.35,46.63,1023.44,2029.40,3301.07,3000.90,3390.79,600.27,594.67,53.59,0000 0000 0000 0000 000000
2016-08-31 05:14:42,0.02,0.49,0.00,25.85,29.15,31.68,14.39,46.63,1023.45,2029.31,3300.69,3000.17,3390.04,599.95,594.35,53.64,0000 0000 0000 0000 000000
2016-08-31 05:19:43,0.01,0.49,0.00,25.85,29.15,31.67,14.38,46.65,1023.45,2029.22,3300.05,3000.00,3389.93,599.80,594.14,53.69,0000 0000 0000 0000 000000
2016-08-31 05:24:44,0.02,0.49,0.00,25.85,29.15,31.68,14.32,46.46,1023.45,2029.18,3299.69,2999.87,3389.19,599.68,594.07,53.74,0000 0000 0000 0000 000000
2016-08-31 05:29:46,0.02,0.49,0.00,25.87,29.15,31.68,14.32,46.40,1023.45,2029.08,3299.02,2999.20,3388.98,599.50,593.75,53.80,0000 0000 0000 0000 000000
2016-08-31 05:34:47,0.02,0.49,0.00,25.88,29.15,31.67,14.44,46.63,1023.45,2029.06,3298.77,2999.00,3388.48,600.53,594.77,53.85,0000 0000 0000 0000 000000
2016-08-31 05:39:49,0.01,0.49,0.00,25.86,29.15,31.69,14.29,46.69,1023.45,2029.09,3298.19,2998.98,3388.04,599.46,593.72,53.90,0000 0000 0000 0000 000000
2016-08-31 05:44:50,0.01,0.49,0.00,25.89,29.16,31.69,14.34,46.65,1023.41,2029.07,3298.00,2998.59,3387.99,599.99,594.37,53.95,0000 0000 0000 0000 000000
2016-08-31 05:49:51,0.02,0.49,0.00,25.90,29.17,31.69,14.38,46.64,1023.36,2029.04,3297.69,2998.05,3387.75,599.83,594.00,54.00,0000 0000 0000 0000 000000
2016-08-31 05:54:53,0.01,0.50,0.00,25.87,29.17,31.71,14.34,46.67,1023.30,2029.03,3297.03,2998.00,3387.07,599.69,593.93,54.05,0000 0000 0000 0000 000000
2016-08-31 05:59:54,0.00,0.50,0.00,25.88,29.17,31.72,14.45,46.63,1023.14,2029.05,3296.96,2997.95,3387.00,600.24,594.36,54.10,0000 0000 0000 0000 000000
2016-08-31 06:04:55,0.02,0.50,0.00,25.87,29.17,31.71,14.37,46.58,1023.11,2029.07,3296.51,2997.74,3386.97,600.18,594.17,54.15,0000 0000 0000 0000 000000
2016-08-31 06:09:56,0.03,0.50,0.00,25.89,29.17,31.73,14.42,46.62,1023.20,2029.06,3296.03,2997.15,3386.46,600.34,594.44,54.20,0000 0000 0000 0000 000000
2016-08-31 06:14:58,0.01,0.50,0.00,25.91,29.17,31.70,14.34,46.63,1023.22,2029.04,3295.75,2997.00,3386.02,599.74,593.81,54.25,0000 0000 0000 0000 000000
2016-08-31 06:19:59,0.01,0.50,0.00,25.90,29.17,31.73,14.39,46.48,1023.33,2029.02,3295.06,2996.91,3385.88,600.08,594.31,54.30,0000 0000 0000 0000 000000
2016-08-31 06:25:00,0.04,0.50,0.00,25.92,29.17,31.73,14.34,46.49,1023.40,2029.01,3294.74,2996.22,3385.13,599.98,594.19,54.35,0000 0000 0000 0000 000000
2016-08-31 06:30:01,0.01,0.50,0.00,25.93,29.19,31.71,14.38,46.63,1023.36,2029.02,3294.08,2996.00,3385.00,600.16,594.26,54.40,0000 0000 0000 0000 000000
2016-08-31 06:35:03,0.00,0.50,0.00,25.92,29.19,31.71,14.43,46.51,1023.39,2029.00,3293.96,2995.99,3384.85,600.15,594.33,54.45,0000 0000 0000 0000 000000
2016-08-31 06:40:04,0.03,0.50,0.00,25.93,29.20,31.72,14.41,46.51,1023.41,2029.00,3293.32,2995.72,3384.11,600.32,594.32,54.50,0000 0000 0000 0000 000000
2016-08-31 06:45:05,0.02,0.50,0.00,25.94,29.20,31.72,14.40,46.67,1023.42,2029.01,3293.00,2995.07,3384.00,599.89,593.94,54.55,0000 0000 0000 0000 000000
2016-08-31 06:50:07,0.02,0.51,0.00,25.95,29.20,31.72,14.37,46.67,1023.44,2029.00,3292.53,2995.00,3383.77,600.02,594.14,54.60,0000 0000 0000 0000 000000
2016-08-31 06:55:08,0.01,0.51,0.00,25.95,29.20,31.73,14.51,46.49,1023.43,2029.00,3292.01,2994.87,3383.07,600.30,594.36,54.65,0000 0000 0000 0000 000000
2016-08-31 07:00:09,0.02,0.51,0.00,25.97,29.20,31.72,14.41,46.64,1023.45,2029.00,3291.98,2994.38,3383.00,600.09,594.17,54.70,0000 0000 0000 0000 000000
2016-08-31 07:05:10,0.02,0.51,0.00,25.97,29.21,31.71,14.39,46.67,1023.45,2029.00,3291.34,2994.03,3382.68,600.15,594.27,54.76,0000 0000 0000 0000 000000
2016-08-31 07:10:12,0.01,0.51,0.00,25.99,29.22,31.73,14.36,46.62,1023.44,2029.00,3291.00,2993.99,3382.04,599.90,594.00,54.81,0000 0000 0000 0000 000000
2016-08-31 07:15:14,0.02,0.51,0.00,26.00,29.22,31.72,14.37,46.60,1023.43,2029.00,3290.61,2993.71,3381.97,599.77,593.82,54.86,0000 0000 0000 0000 000000
2016-08-31 07:20:15,0.02,0.51,0.00,25.99,29.22,31.74,14.41,46.48,1023.37,2029.00,3290.03,2993.15,3381.66,599.71,593.70,54.91,0000 0000 0000 0000 000000
2016-08-31 07:25:16,0.01,0.51,0.00,26.00,29.22,31.75,14.39,46.53,1023.43,2029.00,3289.86,2993.00,3381.07,600.00,594.03,54.96,0000 0000 0000 0000 000000
2016-08-31 07:30:18,0.01,0.51,0.00,26.02,29.22,31.73,14.33,46.48,1023.44,2029.00,3289.32,2992.99,3380.99,599.76,593.75,55.01,0000 0000 0000 0000 000000
2016-08-31 07:35:19,0.03,0.51,0.00,26.02,29.22,31.73,14.41,46.52,1023.45,2029.00,3288.94,2992.45,3380.47,600.14,594.15,55.06,0000 0000 0000 0000 000000
2016-08-31 07:40:20,0.01,0.52,0.00,26.02,29.22,31.74,14.38,46.61,1023.45,2029.00,3288.29,2992.03,3380.02,600.25,594.12,55.11,0000 0000 0000 0000 000000
2016-08-31 07:45:21,0.00,0.52,0.00,26.02,29.23,31.75,14.37,46.43,1023.45,2029.00,3287.99,2992.00,3379.93,599.83,593.83,55.16,0000 0000 0000 0000 000000
2016-08-31 07:50:23,0.03,0.52,0.00,26.02,29.24,31.76,14.40,46.44,1023.45,2029.00,3287.45,2991.73,3379.25,600.22,594.18,55.21,0000 0000 0000 0000 000000
2016-08-31 07:55:24,0.01,0.52,0.00,26.03,29.25,31.74,14.37,46.49,1023.45,2029.00,3286.99,2991.05,3379.00,600.27,594.30,55.26,0000 0000 0000 0000 000000
2016-08-31 08:00:25,0.01,0.52,0.00,26.04,29.25,31.76,14.34,46.57,1023.45,2029.00,3286.49,2990.99,3378.77,599.99,594.04,55.31,0000 0000 0000 0000 000000
2016-08-31 08:05:26,0.02,0.52,0.00,26.05,29.25,31.75,14.38,46.68,1023.45,2029.00,3286.01,2990.70,3378.05,600.31,594.21,55.36,0000 0000 0000 0000 000000
2016-08-31 08:10:28,0.02,0.52,0.00,26.03,29.25,31.76,14.47,46.53,1023.45,2029.00,3285.55,2990.03,3377.91,600.47,594.45,55.41,0000 0000 0000 0000 000000
2016-08-31 08:15:29,0.01,0.52,0.00,26.05,29.25,31.78,14.32,46.60,1023.45,2028.99,3284.99,2989.99,3377.14,599.63,593.56,55.46,0000 0000 0000 0000 000000
2016-08-31 08:20:30,0.02,0.52,0.00,26.03,29.25,31.81,14.40,46.62,1023.45,2028.99,3284.31,2989.58,3376.99,600.13,594.09,55.51,0000 0000 0000 0000 000000
2016-08-31 08:25:32,0.02,0.53,0.00,26.06,29.25,31.81,14.36,46.52,1023.45,2028.99,3283.98,2989.03,3376.52,599.80,593.72,55.56,0000 0000 0000 0000 000000
2016-08-31 08:30:33,0.02,0.53,0.00,26.07,29.26,31.79,14.35,46.59,1023.45,2028.99,3283.32,2988.92,3376.00,600.09,593.97,55.61,0000 0000 0000 0000 000000
2016-08-31 08:35:34,0.03,0.53,0.00,26.04,29.27,31.80,14.33,46.61,1023.45,2028.98,3282.82,2988.16,3375.54,599.75,593.72,55.66,0000 0000 0000 0000 000000
2016-08-31 08:40:35,0.01,0.53,0.00,26.05,29.27,31.84,14.36,46.57,1023.45,2028.99,3282.05,2988.00,3375.02,599.99,593.90,55.72,0000 0000 0000 0000 000000
2016-08-31 08:45:37,0.01,0.53,0.00,26.09,29.27,31.80,14.47,46.63,1023.45,2028.98,3281.84,2987.83,3374.79,600.37,594.17,55.77,0000 0000 0000 0000 000000
2016-08-31 08:50:38,0.04,0.53,0.00,26.08,29.27,31.78,14.37,46.58,1023.45,2028.99,3281.06,2987.07,3374.04,599.86,593.76,55.82,0000 0000 0000 0000 000000
2016-08-31 08:55:39,0.02,0.53,0.00,26.06,29.27,31.82,14.37,46.49,1023.45,2028.96,3280.53,2986.90,3373.69,600.06,593.96,55.87,0000 0000 0000 0000 000000
2016-08-31 09:00:40,0.03,0.54,0.00,26.07,29.27,31.85,14.27,46.54,1023.45,2028.95,3280.01,2986.20,3373.03,599.66,593.58,55.92,0000 0000 0000 0000 000000
2016-08-31 09:05:42,0.01,0.54,0.00,26.07,29.27,31.83,14.37,46.65,1023.45,2028.96,3279.54,2986.00,3372.86,599.88,593.77,55.97,0000 0000 0000 0000 000000
2016-08-31 09:10:43,0.02,0.54,0.00,26.07,29.27,31.83,14.32,46.56,1023.45,2028.94,3278.99,2985.79,3372.10,599.98,593.85,56.02,0000 0000 0000 0000 000000
2016-08-31 09:15:45,0.01,0.54,0.00,26.11,29.27,31.84,14.45,46.64,1023.45,2028.84,3278.35,2985.06,3371.93,600.51,594.20,56.07,0000 0000 0000 0000 000000
2016-08-31 09:20:46,0.02,0.54,0.00,26.11,29.27,31.81,14.42,46.61,1023.47,2028.80,3277.99,2984.99,3371.17,599.82,593.65,56.12,0000 0000 0000 0000 000000
2016-08-31 09:25:47,0.03,0.54,0.00,26.08,29.27,31.86,14.39,46.58,1023.47,2028.80,3277.39,2984.50,3370.88,600.48,594.34,56.17,0000 0000 0000 0000 000000
2016-08-31 09:30:49,0.04,0.54,0.00,26.10,29.28,31.86,14.32,46.69,1023.46,2028.82,3276.68,2984.00,3370.09,599.87,593.71,56.22,0000 0000 0000 0000 000000
2016-08-31 09:35:50,0.04,0.55,0.00,26.12,29.28,31.86,14.32,46.67,1023.46,2028.81,3275.88,2983.34,3369.58,599.85,593.68,56.27,0000 0000 0000 0000 000000
2016-08-31 09:40:52,0.02,0.55,0.00,26.10,29.29,31.88,14.35,46.77,1023.46,2028.80,3275.06,2982.97,3368.97,599.60,593.39,56.32,0000 0000 0000 0000 000000
2016-08-31 09:45:53,0.06,0.55,0.00,26.08,29.29,31.87,14.42,46.64,1023.46,2028.91,3274.33,2982.26,3368.34,600.29,594.15,56.37,0000 0000 0000 0000 000000
2016-08-31 09:50:54,-0.00,0.55,0.00,26.09,29.29,31.89,14.40,46.65,1023.50,2028.78,3273.75,2981.97,3367.90,600.22,594.13,56.42,0000 0000 0000 0000 000000
2016-08-31 09:55:55,0.05,0.55,0.00,26.09,29.29,31.91,14.37,46.58,1023.54,2028.76,3273.02,2981.28,3367.12,599.74,593.59,56.47,0000 0000 0000 0000 000000
2016-08-31 10:00:57,0.02,0.55,0.00,26.07,29.29,31.91,14.27,46.63,1023.61,2028.82,3272.35,2980.99,3366.75,599.20,593.19,56.52,0000 0000 0000 0000 000000
2016-08-31 10:05:58,0.03,0.56,0.00,26.10,29.29,31.87,14.43,46.72,1023.55,2028.78,3271.79,2980.42,3366.05,600.15,594.08,56.58,0000 0000 0000 0000 000000
2016-08-31 10:10:59,0.03,0.56,0.00,26.09,29.30,31.86,14.34,46.67,1023.49,2028.79,3270.95,2979.96,3365.47,599.48,593.41,56.63,0000 0000 0000 0000 000000
2016-08-31 10:16:01,0.02,0.56,0.00,26.08,29.30,31.88,14.39,46.77,1023.46,2028.56,3270.09,2979.14,3364.97,599.63,593.51,56.68,0000 0000 0000 0000 000000
2016-08-31 10:21:02,0.04,0.56,0.00,26.07,29.30,31.90,14.36,46.68,1023.48,2028.73,3269.71,2978.99,3364.34,600.00,593.90,56.73,0000 0000 0000 0000 000000
2016-08-31 10:26:03,0.02,0.56,0.00,26.10,29.30,31.88,14.39,46.68,1023.52,2028.75,3269.02,2978.70,3364.00,600.15,594.10,56.78,0000 0000 0000 0000 000000
2016-08-31 10:31:04,0.02,0.56,0.00,26.10,29.30,31.88,14.33,46.68,1023.72,2028.63,3268.84,2978.08,3363.69,599.62,593.56,56.83,0000 0000 0000 0000 000000
2016-08-31 10:36:05,0.02,0.56,0.00,26.11,29.30,31.88,14.33,46.55,1023.74,2028.54,3268.06,2977.99,3363.05,599.57,593.60,56.88,0000 0000 0000 0000 000000
2016-08-31 10:41:07,0.02,0.56,0.00,26.11,29.30,31.87,14.34,46.63,1023.77,2028.51,3267.65,2977.60,3362.90,600.26,594.24,56.93,0000 0000 0000 0000 000000
2016-08-31 10:46:08,0.04,0.57,0.00,26.09,29.30,31.90,14.35,46.64,1023.87,2028.58,3267.01,2977.03,3362.14,599.66,593.75,56.98,0000 0000 0000 0000 000000
2016-08-31 10:51:09,-0.01,0.57,0.00,26.10,29.29,31.88,14.40,46.63,1023.86,2028.51,3266.66,2977.00,3361.99,599.78,593.84,57.03,0000 0000 0000 0000 000000
2016-08-31 10:56:10,0.04,0.57,0.00,26.13,29.30,31.87,14.35,46.77,1023.86,2028.68,3266.05,2976.80,3361.72,599.89,593.84,57.08,0000 0000 0000 0000 000000
2016-08-31 11:01:12,0.02,0.57,0.00,26.12,29.30,31.89,14.43,46.75,1023.89,2028.61,3265.74,2976.09,3361.05,600.13,594.17,57.13,0000 0000 0000 0000 000000
2016-08-31 11:06:13,0.02,0.57,0.00,26.11,29.29,31.93,14.39,46.74,1023.93,2028.70,3265.08,2976.00,3360.98,599.80,593.92,57.18,0000 0000 0000 0000 000000
2016-08-31 11:11:14,0.02,0.57,0.00,26.11,29.29,31.91,14.35,46.63,1023.94,2028.75,3264.89,2975.92,3360.41,599.99,594.06,57.23,0000 0000 0000 0000 000000
2016-08-31 11:16:16,0.02,0.57,0.00,26.10,29.29,31.97,14.35,46.68,1023.94,2028.62,3264.12,2975.18,3360.00,599.73,593.83,57.28,0000 0000 0000 0000 000000
2016-08-31 11:21:17,0.02,0.57,0.00,26.10,29.29,31.92,14.40,46.60,1023.94,2028.71,3263.96,2975.00,3359.81,600.07,594.17,57.33,0000 0000 0000 0000 000000
2016-08-31 11:26:19,0.01,0.57,0.00,26.09,29.29,31.95,14.38,46.54,1023.94,2028.50,3263.19,2974.70,3359.07,600.14,594.26,57.38,0000 0000 0000 0000 000000
2016-08-31 11:31:20,0.02,0.58,0.00,26.13,29.28,31.95,14.39,46.68,1023.94,2028.38,3263.00,2974.07,3358.86,600.41,594.33,57.43,0000 0000 0000 0000 000000
2016-08-31 11:36:21,-0.00,0.58,0.00,26.11,29.28,31.92,14.36,46.68,1023.92,2028.17,3262.31,2973.99,3358.10,600.22,594.29,57.48,0000 0000 0000 0000 000000
2016-08-31 11:41:23,0.02,0.58,0.00,26.10,29.28,31.92,14.33,46.67,1023.79,2028.17,3261.97,2973.60,3357.97,599.84,593.87,57.53,0000 0000 0000 0000 000000
2016-08-31 11:46:24,0.03,0.58,0.00,26.10,29.28,31.91,14.41,46.57,1023.82,2028.23,3261.21,2973.02,3357.32,600.34,594.34,57.59,0000 0000 0000 0000 000000
2016-08-31 11:51:26,0.00,0.58,0.00,26.09,29.28,31.93,14.34,46.66,1023.85,2028.23,3260.94,2972.93,3357.00,599.77,593.73,57.64,0000 0000 0000 0000 000000
2016-08-31 11:56:27,0.04,0.58,0.00,26.10,29.29,31.97,14.35,46.62,1023.78,2028.10,3260.13,2972.19,3356.44,600.10,594.13,57.69,0000 0000 0000 0000 000000
2016-08-31 12:01:28,0.00,0.58,0.00,26.10,29.29,31.92,14.37,46.56,1023.64,2028.11,3259.88,2972.00,3356.01,599.75,593.66,57.74,0000 0000 0000 0000 000000
2016-08-31 12:06:30,0.02,0.58,0.00,26.11,29.29,31.95,14.43,46.57,1023.58,2028.13,3259.07,2971.90,3355.84,600.51,594.41,57.79,0000 0000 0000 0000 000000
2016-08-31 12:11:31,0.02,0.58,0.00,26.11,29.30,31.94,14.42,46.60,1023.57,2028.12,3258.89,2971.25,3355.12,599.95,593.83,57.84,0000 0000 0000 0000 000000
2016-08-31 12:16:32,0.01,0.59,0.00,26.10,29.30,31.95,14.41,46.62,1023.53,2028.18,3258.18,2971.01,3354.99,600.06,593.92,57.89,0000 0000 0000 0000 000000
2016-08-31 12:21:34,0.03,0.59,0.00,26.10,29.30,31.96,14.40,46.63,1023.71,2028.11,3257.79,2970.85,3354.38,600.01,593.98,57.94,0000 0000 0000 0000 000000
2016-08-31 12:26:35,0.02,0.59,0.00,26.13,29.30,31.94,14.40,46.59,1023.90,2028.09,3257.05,2970.11,3354.00,599.68,593.67,57.99,0000 0000 0000 0000 000000
2016-08-31 12:31:36,0.01,0.59,0.00,26.16,29.30,31.91,14.41,46.60,1023.90,2028.06,3256.74,2970.00,3353.58,600.22,594.17,58.04,0000 0000 0000 0000 000000
2016-08-31 12:36:37,0.02,0.59,0.00,26.12,29.30,31.89,14.38,46.52,1023.92,2028.08,3256.05,2969.87,3353.03,599.84,593.95,58.09,0000 0000 0000 0000 000000
2016-08-31 12:41:38,0.03,0.59,0.00,26.11,29.30,31.92,14.41,46.67,1023.93,2028.04,3255.79,2969.12,3352.92,600.10,594.23,58.14,0000 0000 0000 0000 000000
2016-08-31 12:46:40,0.02,0.59,0.00,26.12,29.30,31.96,14.34,46.71,1023.91,2028.03,3255.07,2968.99,3352.21,599.65,593.66,58.19,0000 0000 0000 0000 000000
2016-08-31 12:51:41,0.01,0.59,0.00,26.12,29.30,31.98,14.34,46.70,1023.94,2028.03,3254.89,2968.86,3352.00,599.70,593.84,58.24,0000 0000 0000 0000 000000
2016-08-31 12:56:42,0.03,0.60,0.00,26.11,29.30,31.97,14.37,46.65,1023.94,2028.03,3254.19,2968.23,3351.85,599.89,593.84,58.29,0000 0000 0000 0000 000000